This demonstration page uses our WeatherBlox Daily Observations layout. Learn more.

Left ArrowRight Arrow

Hourly Observations for April 3, 2017

Temp ( °F °C ) Dew Point ( °F °C ) Humidity (%) Winds ( mph kmh ) Pressure ( in mb ) Visibility ( mi km ) Precip ( " mm )
12:15 am 00:15 Clear 46 8 39 4 76 76 SW 3 6 30.18 1022 10 16 N/A
12:35 am 00:35 Clear 45 7 39 4 81 81 SW 5 7 30.18 1022 10 16 N/A
12:55 am 00:55 Clear 45 7 39 4 81 81 SSW 5 7 30.18 1022 10 16 N/A
1:15 am 01:15 Clear 45 7 37 3 76 76 SSW 5 7 30.18 1022 10 16 N/A
1:35 am 01:35 Clear 50 10 37 3 62 62 S 7 11 30.15 1021 10 16 N/A
1:55 am 01:55 Clear 50 10 37 3 62 62 S 7 11 30.15 1021 10 16 N/A
2:15 am 02:15 Clear 50 10 37 3 62 62 S 5 7 30.12 1020 10 16 N/A
2:35 am 02:35 Clear 50 10 36 2 58 58 S 3 6 30.12 1020 10 16 N/A
2:55 am 02:55 Clear 46 8 37 3 71 71 S 6 9 30.12 1020 10 16 N/A
3:15 am 03:15 Clear 45 7 39 4 81 81 S 5 7 30.12 1020 10 16 N/A
3:35 am 03:35 Clear 46 8 37 3 71 71 S 5 7 30.09 1019 10 16 N/A
3:55 am 03:55 Clear 45 7 37 3 76 76 S 6 9 30.12 1020 10 16 N/A
4:15 am 04:15 Clear 45 7 37 3 76 76 S 5 7 30.12 1020 10 16 N/A
4:35 am 04:35 Clear 46 8 37 3 71 71 S 5 7 30.12 1020 10 16 N/A
4:55 am 04:55 Clear 48 9 37 3 66 66 S 6 9 30.12 1020 10 16 N/A
5:15 am 05:15 Clear 46 8 37 3 71 71 S 5 7 30.12 1020 10 16 N/A
5:35 am 05:35 Clear 46 8 37 3 71 71 SSE 5 7 30.12 1020 10 16 N/A
5:55 am 05:55 Clear 46 8 37 3 71 71 S 6 9 30.12 1020 10 16 N/A
6:15 am 06:15 Clear 46 8 37 3 71 71 SSE 3 6 30.12 1020 10 16 N/A
6:35 am 06:35 Clear 46 8 37 3 71 71 S 5 7 30.12 1020 10 16 N/A
6:55 am 06:55 Sunny 46 8 37 3 71 71 SSE 3 6 30.12 1020 10 16 N/A
7:15 am 07:15 Sunny 46 8 37 3 71 71 S 5 7 30.12 1020 10 16 N/A
7:35 am 07:35 Sunny 48 9 39 4 71 71 S 8 13 30.12 1020 10 16 N/A
7:55 am 07:55 Sunny 48 9 41 5 76 76 S 8 13 30.12 1020 10 16 N/A
8:15 am 08:15 Sunny 50 10 41 5 71 71 S 8 13 30.12 1020 10 16 N/A
8:35 am 08:35 Sunny 52 11 43 6 72 72 S 8 13 30.09 1019 10 16 N/A
8:55 am 08:55 Sunny 52 11 43 6 72 72 S 10 17 30.09 1019 10 16 N/A
9:15 am 09:15 Sunny 54 12 45 7 72 72 S 10 17 30.06 1018 10 16 N/A
9:35 am 09:35 Sunny 55 13 45 7 67 67 S 13 20 30.06 1018 10 16 N/A
9:55 am 09:55 Sunny 59 15 46 8 63 63 S 14 22 30.06 1018 10 16 N/A
10:15 am 10:15 Sunny 61 16 46 8 59 59 SSW 16 26 30.03 1017 10 16 N/A
10:35 am 10:35 Sunny 63 17 46 8 56 56 SSW 15 24 30.03 1017 10 16 N/A
10:55 am 10:55 Sunny 63 17 48 9 59 59 S 16 26 30.03 1017 10 16 N/A
11:15 am 11:15 Mostly Cloudy 64 18 46 8 52 52 SSW 23 37 30.03 1017 10 16 N/A
11:35 am 11:35 Cloudy 64 18 46 8 52 52 S 21 33 30.03 1017 10 16 N/A
11:55 am 11:55 Cloudy 66 19 48 9 52 52 SSW 17 28 30.03 1017 10 16 N/A
12:15 pm 12:15 Cloudy 66 19 46 8 49 49 S 21 33 30.00 1016 10 16 N/A
12:35 pm 12:35 Cloudy 66 19 46 8 49 49 S 17 28 30.00 1016 10 16 N/A
12:55 pm 12:55 Cloudy 66 19 48 9 52 52 S 12 19 29.97 1015 10 16 N/A
1:15 pm 13:15 Cloudy 68 20 48 9 49 49 S 21 33 29.97 1015 10 16 N/A
1:35 pm 13:35 Cloudy 68 20 50 10 53 53 S 20 31 29.97 1015 10 16 N/A
1:55 pm 13:55 Mostly Cloudy 66 19 50 10 56 56 S 13 20 29.94 1014 10 16 N/A
2:15 pm 14:15 Cloudy 66 19 50 10 56 56 S 16 26 29.94 1014 10 16 N/A
2:35 pm 14:35 Mostly Cloudy 66 19 50 10 56 56 SSW 15 24 29.94 1014 10 16 N/A
2:55 pm 14:55 Mostly Cloudy 66 19 50 10 56 56 S 17 28 29.94 1014 10 16 N/A
3:15 pm 15:15 Cloudy 66 19 50 10 56 56 S 15 24 29.91 1013 10 16 N/A
3:35 pm 15:35 Cloudy 66 19 50 10 56 56 S 16 26 29.91 1013 10 16 N/A
3:55 pm 15:55 Cloudy 68 20 50 10 53 53 S 17 28 29.88 1012 10 16 N/A
4:15 pm 16:15 Mostly Cloudy 68 20 50 10 53 53 S 16 26 29.88 1012 10 16 N/A
4:35 pm 16:35 Cloudy 68 20 50 10 53 53 S 17 28 29.88 1012 10 16 N/A
4:55 pm 16:55 Cloudy 68 20 50 10 53 53 SSE 16 26 29.88 1012 10 16 N/A
5:15 pm 17:15 Cloudy 68 20 50 10 53 53 S 13 20 29.85 1011 10 16 N/A
5:35 pm 17:35 Cloudy 66 19 50 10 56 56 S 14 22 29.88 1012 10 16 N/A
5:55 pm 17:55 Cloudy 66 19 50 10 56 56 S 12 19 29.85 1011 10 16 N/A
6:15 pm 18:15 Cloudy 66 19 50 10 56 56 S 12 19 29.83 1010 10 16 N/A
6:35 pm 18:35 Mostly Cloudy 66 19 48 9 52 52 SSE 9 15 29.83 1010 10 16 N/A
6:55 pm 18:55 Mostly Cloudy with Light Rain 66 19 50 10 56 56 SSE 10 17 29.80 1009 10 16 N/A
7:15 pm 19:15 Cloudy 64 18 48 9 56 56 SSE 14 22 29.80 1009 10 16 N/A
7:35 pm 19:35 Cloudy with Light Rain 63 17 50 10 64 64 SSE 13 20 29.83 1010 10 16 N/A
7:55 pm 19:55 Cloudy with Rain 61 16 52 11 72 72 SSE 10 17 29.80 1009 10 16 N/A
8:15 pm 20:15 Cloudy with Light Rain 59 15 52 11 77 77 SSE 10 17 29.80 1009 10 16 0.01 0.25
8:35 pm 20:35 Cloudy with Light Rain 59 15 52 11 77 77 SSE 10 17 29.80 1009 10 16 0.01 0.25
8:55 pm 20:55 Cloudy with Light Rain 57 14 52 11 82 82 SSE 9 15 29.77 1008 10 16 0.01 0.25
9:15 pm 21:15 Cloudy with Light Rain 55 13 52 11 88 88 SE 7 11 29.77 1008 10 16 0.01 0.25
9:35 pm 21:35 Cloudy with Rain 55 13 54 12 94 94 SE 5 7 29.74 1007 7 11 0.02 0.51
9:55 pm 21:55 Cloudy with Rain 54 12 54 12 100 100 N N/A 29.71 1006 5 8 0.05 1.27
10:15 pm 22:15 Cloudy with Drizzle 55 13 55 13 100 100 SE 3 6 29.71 1006 10 16 N/A
10:35 pm 22:35 Cloudy with Drizzle 57 14 57 14 100 100 SSE 9 15 29.68 1005 10 16 N/A
10:55 pm 22:55 Cloudy 57 14 57 14 100 100 S 6 9 29.68 1005 10 16 N/A
11:15 pm 23:15 Cloudy 57 14 57 14 100 100 N N/A 29.65 1004 10 16 N/A
11:35 pm 23:35 Cloudy 55 13 55 13 100 100 N N/A 29.68 1005 10 16 N/A
11:55 pm 23:55 Cloudy 55 13 55 13 100 100 W 3 6 29.65 1004 10 16 N/A

Powered by AerisWeather